Weather in Multan

Pakistan     30˚11′03″N   71˚30′05″E
temp.,
°C
wind,
m/s
gust,
m/s
humid.,
%
clouds,
%
prec.,
mm/h
press.,
hPa
HPBL,
m
2 december, wed
wed223:00+18˚ese22190 0.0 101823
02:00+17˚ene11210 0.0 101723
05:00+17˚ne22220 0.0 101723
08:00+18˚e11210 0.0 101923
11:00+27˚sse00120 0.0 1018419
14:00+30˚wsw11100 0.0 1014898
17:00+24˚n00130 0.0 101325
20:00+21˚ene23160 0.0 101523
3 december, thu
thu323:00+19˚se23190 0.0 101434
02:00+18˚se23200 0.0 101327
05:00+17˚ese12210 0.0 101323
08:00+18˚e23190 0.0 101540
11:00+26˚ese11110 0.0 1015491
14:00+30˚nne1190 0.0 1012946
17:00+26˚nne23120 0.0 101124
20:00+21˚nne33160 0.0 101332
4 december, fri
fri423:00+19˚nne34180 0.0 101345
02:00+18˚nne34210 0.0 101345
05:00+16˚nne34230 0.0 101252
08:00+17˚nne23230 0.0 101483
11:00+25˚n12130 0.0 1014424
14:00+29˚n22110 0.0 1011798
17:00+25˚nnw23140 0.0 101027
20:00+22˚nne34170 0.0 101243
5 december, sat
sat523:00+20˚ne22190 0.0 101223
02:00+17˚nne22220 0.0 101228
05:00+16˚n45260 0.0 101274
08:00+17˚n36280 0.0 1014145
11:00+24˚n45170 0.0 1015556
14:00+28˚n55150 0.0 10121230
17:00+23˚n35200 0.0 1012144
20:00+20˚n34251 0.0 101453
6 december, sun
sun623:00+18˚n34281 0.0 101555
02:00+17˚n34300 0.0 101555
05:00+16˚n34320 0.0 101673
08:00+17˚nne34322 0.0 1018114
11:00+25˚n452113 0.0 1018615
14:00+28˚n441788 0.0 10161387
17:00+24˚n342152 0.0 101697
20:00+20˚n34250 0.0 101859